Location: Burleson Alternative School
(32.5290°N, 97.3406°W)
Time: 07:48:04
(UTC+00:00)

Transit 2A Rocket - Pass Details

Date: 13 November 2024
Orbit: 586 x 903 km, 66.7° (Epoch: 06 December)

Event Time Altitude Azimuth Distance (km) Brightness Sun altitude
Rises 00:09:50 0° 344° (NNW) 3,202 8.2 -8.8°
Reaches altitude 10° 00:12:35 10° 355° (N) 2,216 7.3 -9.4°
Maximum altitude 00:16:58 30° 56° (ENE) 1,219 5.5 -10.3°
Drops below altitude 10° 00:21:01 10° 118° (ESE) 2,037 6.8 -11.1°
Enters shadow 00:22:46 - 127° (SE) 2,652 7.4 -11.4°
